Location: Grassland Mountain Observatory
(35.7543°N, 82.8038°W)
Time: 05:24:19
(UTC-05:00)

Envisat - Pass Details

Date: 01 December 2021
Orbit: 764 x 766 km, 98.2° (Epoch: 19 January)

Event Time Altitude Azimuth Distance (km) Brightness Sun altitude
Rises 05:46:15 0° 8° (N) 3,236 6.2 -19.2°
Reaches altitude 10° 05:48:35 10° 5° (N) 2,305 5.4 -18.8°
Maximum altitude 05:53:35 62° 286° (WNW) 861 2.9 -17.8°
Drops below altitude 10° 05:58:33 10° 206° (SSW) 2,290 5.3 -16.8°
Sets 06:00:52 0° 203° (SSW) 3,212 6.1 -16.4°
